TimeEDT,TemperatureF,Dew PointF,Humidity,Sea Level PressureIn,VisibilityMPH,Wind Direction,Wind SpeedMPH,Gust SpeedMPH,PrecipitationIn,Events,Conditions,WindDirDegrees,DateUTC
12:56 AM,51.1,23.0,33,30.16,10.0,NNW,19.6,27.6,N/A,,Clear,340,2013-03-14 04:56:00
1:56 AM,48.9,21.0,33,30.17,10.0,NNW,16.1,25.3,N/A,,Clear,340,2013-03-14 05:56:00
2:56 AM,46.0,23.0,40,30.19,10.0,NW,12.7,-,N/A,,Clear,320,2013-03-14 06:56:00
3:56 AM,44.1,25.0,47,30.20,10.0,NNW,5.8,-,N/A,,Clear,330,2013-03-14 07:56:00
4:56 AM,43.0,21.9,43,30.20,10.0,North,8.1,-,N/A,,Clear,350,2013-03-14 08:56:00
5:56 AM,41.0,21.9,47,30.22,10.0,North,6.9,-,N/A,,Clear,350,2013-03-14 09:56:00
6:56 AM,37.9,25.0,60,30.26,10.0,NNW,3.5,-,N/A,,Clear,330,2013-03-14 10:56:00
7:56 AM,37.9,23.0,55,30.29,10.0,North,8.1,-,N/A,,Clear,350,2013-03-14 11:56:00
8:56 AM,41.0,23.0,49,30.32,10.0,North,8.1,-,N/A,,Clear,360,2013-03-14 12:56:00
9:56 AM,44.1,21.0,40,30.34,10.0,NNE,12.7,-,N/A,,Clear,20,2013-03-14 13:56:00
10:56 AM,46.0,18.0,33,30.33,10.0,NE,9.2,-,N/A,,Clear,40,2013-03-14 14:56:00
11:56 AM,48.0,19.0,32,30.31,10.0,NNW,10.4,-,N/A,,Clear,330,2013-03-14 15:56:00
12:56 PM,50.0,19.0,29,30.30,10.0,WNW,9.2,-,N/A,,Clear,300,2013-03-14 16:56:00
1:56 PM,53.1,19.0,26,30.28,10.0,NNW,9.2,23.0,N/A,,Clear,340,2013-03-14 17:56:00
2:56 PM,54.0,21.0,28,30.25,10.0,North,12.7,17.3,N/A,,Clear,350,2013-03-14 18:56:00
3:56 PM,55.9,19.9,25,30.22,10.0,WNW,9.2,-,N/A,,Clear,300,2013-03-14 19:56:00
4:56 PM,57.0,19.0,23,30.21,10.0,NW,8.1,-,N/A,,Clear,320,2013-03-14 20:56:00
5:56 PM,55.9,18.0,23,30.19,10.0,WNW,5.8,-,N/A,,Clear,300,2013-03-14 21:56:00
6:56 PM,55.0,19.9,25,30.22,10.0,NW,10.4,-,N/A,,Clear,310,2013-03-14 22:56:00
7:56 PM,50.0,23.0,35,30.22,10.0,West,5.8,-,N/A,,Clear,280,2013-03-14 23:56:00
8:56 PM,45.0,27.0,49,30.22,10.0,WSW,4.6,-,N/A,,Clear,240,2013-03-15 00:56:00
9:56 PM,43.0,30.0,60,30.22,10.0,WSW,4.6,-,N/A,,Clear,240,2013-03-15 01:56:00
10:56 PM,43.0,33.1,68,30.23,10.0,West,3.5,-,N/A,,Clear,270,2013-03-15 02:56:00
11:56 PM,41.0,33.1,73,30.24,10.0,WSW,3.5,-,N/A,,Clear,240,2013-03-15 03:56:00